FW6905 Weather Reports


Display with metric or nautical units.
time (UTC)temp
F
wind
direction
speed
MPH
gust
MPH
rain 1hr
in
rain 24hr
in
rain mn
in
humidity
%
barometer
mb
20260507203006 52 68 0.0 2.0 0.00 0.00 0.00 80 1017.7
20260507202506 52 82 0.0 3.0 0.00 0.00 0.00 81 1016.7
20260507202006 52 82 1.0 3.0 0.00 0.00 0.00 81 1016.7
20260507201507 52 70 1.0 2.0 0.00 0.00 0.00 81 1016.7
20260507201007 52 68 1.0 2.0 0.00 0.00 0.00 78 1016.7
20260507200507 53 68 0.0 2.0 0.00 0.00 0.00 79 1016.7
20260507200007 53 0 0.0 0.0 0.00 0.00 0.00 79 1016.7
20260507195506 53 0 0.0 0.0 0.00 0.00 0.00 78 1017.7
20260507194506 53 225 0.0 1.0 0.00 0.00 0.00 78 1017.7
20260507194006 54 1 0.0 1.0 0.00 0.00 0.00 76 1017.7
20260507193507 54 1 0.0 1.0 0.00 0.00 0.00 75 1017.7
20260507193006 54 0 0.0 0.0 0.00 0.00 0.00 76 1017.7
20260507191506 55 196 0.0 1.0 0.00 0.00 0.00 74 1017.7
20260507191007 56 0 0.0 0.0 0.00 0.00 0.00 74 1016.7
20260507190006 56 314 0.0 1.0 0.00 0.00 0.00 73 1016.7
20260507185006 57 0 0.0 0.0 0.00 0.00 0.00 73 1016.7
20260507183506 58 249 1.0 2.0 0.00 0.04 0.00 70 1015.7
20260507182506 59 314 0.0 1.0 0.00 0.08 0.00 68 1015.7
20260507182007 59 188 0.0 2.0 0.00 0.12 0.00 67 1015.7
20260507181506 60 186 0.0 2.0 0.00 0.29 0.00 67 1015.7
20260507181006 60 179 0.0 2.0 0.00 0.33 0.00 66 1015.7
20260507180507 61 323 0.0 2.0 0.00 0.33 0.00 66 1015.7
20260507180006 61 234 0.0 2.0 0.00 0.33 0.00 66 1015.7
20260507175507 61 225 0.0 2.0 0.00 0.33 0.00 66 1015.7
20260507175007 62 257 1.0 3.0 0.00 0.33 0.00 66 1015.7
20260507174007 62 279 2.0 3.0 0.00 0.33 0.00 63 1015.7
20260507172507 63 9 4.0 6.0 0.00 0.33 0.00 62 1015.7
20260507172007 63 183 0.0 3.0 0.00 0.33 0.00 63 1015.7
20260507170506 63 273 0.0 3.0 0.00 0.33 0.00 61 1015.7
20260507170006 63 247 2.0 4.0 0.00 0.45 0.00 61 1015.7
20260507165506 63 228 1.0 4.0 0.00 0.58 0.00 60 1014.7
20260507165007 64 212 2.0 4.0 0.00 0.58 0.00 60 1014.7
20260507164507 64 201 2.0 3.0 0.00 0.58 0.00 60 1014.7
20260507164007 64 193 1.0 2.0 0.00 0.58 0.00 59 1015.7
20260507163006 65 225 1.0 4.0 0.00 0.58 0.00 57 1015.7
20260507162506 65 245 1.0 4.0 0.00 0.58 0.00 55 1015.7
20260507162006 65 242 2.0 4.0 0.00 0.58 0.00 53 1015.7
20260507161006 66 181 0.0 2.0 0.00 0.58 0.00 49 1015.7
20260507160507 66 211 1.0 2.0 0.00 0.58 0.00 48 1015.7
20260507155507 67 269 2.0 6.0 0.00 0.58 0.00 46 1014.7
20260507154506 67 282 6.0 10.0 0.00 0.58 0.00 46 1014.7
20260507154009 67 275 3.0 9.0 0.00 0.58 0.00 47 1016.7
20260507153006 68 267 6.0 11.0 0.00 0.58 0.00 47 1016.7
20260507152506 68 263 7.0 12.0 0.00 0.58 0.00 47 1015.7
20260507151506 69 276 7.0 15.0 0.00 0.58 0.00 45 1015.7
20260507151007 70 284 5.0 15.0 0.00 0.58 0.00 46 1014.7
20260507150506 70 287 6.0 15.0 0.00 0.58 0.00 46 1014.7
20260507150007 70 292 4.0 15.0 0.00 0.58 0.00 45 1014.7
20260507145506 71 285 10.0 14.0 0.00 0.58 0.00 45 1014.7
20260507145006 71 282 7.0 12.0 0.00 0.58 0.00 44 1014.7
20260507144506 71 292 8.0 12.0 0.00 0.58 0.00 44 1014.7
20260507144006 71 292 8.0 14.0 0.00 0.58 0.00 43 1013.7
20260507143006 71 285 6.0 14.0 0.00 0.58 0.00 43 1013.7
20260507142506 71 285 7.0 11.0 0.00 0.58 0.00 42 1013.7
20260507142006 71 282 7.0 14.0 0.00 0.58 0.00 42 1013.7
20260507141506 71 288 7.0 14.0 0.00 0.58 0.00 41 1013.7
20260507141007 72 291 8.0 11.0 0.00 0.58 0.00 44 1013.7
20260507140007 72 270 2.0 12.0 0.00 0.58 0.00 43 1013.7
20260507135506 72 281 6.0 11.0 0.00 0.58 0.00 45 1013.7
20260507135006 72 270 6.0 10.0 0.00 0.58 0.00 43 1013.7
20260507134506 72 296 3.0 11.0 0.00 0.58 0.00 45 1013.7
20260507134006 72 310 4.0 11.0 0.00 0.58 0.00 45 1013.7
20260507133506 72 296 3.0 11.0 0.00 0.58 0.00 46 1013.7
20260507133006 72 286 6.0 11.0 0.00 0.58 0.00 47 1013.7
20260507132506 72 282 4.0 11.0 0.00 0.58 0.00 49 1013.7
20260507132007 72 276 4.0 9.0 0.00 0.58 0.00 49 1013.7
20260507131506 72 209 3.0 12.0 0.00 0.58 0.00 49 1013.7
20260507131007 72 178 9.0 13.0 0.00 0.58 0.00 49 1014.7
20260507130007 71 231 2.0 8.0 0.00 0.58 0.00 49 1014.7
20260507125506 71 234 4.0 8.0 0.00 0.58 0.00 48 1014.7
20260507124506 71 203 6.0 9.0 0.00 0.58 0.00 50 1014.7
20260507124006 71 183 6.0 9.0 0.00 0.58 0.00 50 1014.7
20260507123506 72 150 1.0 5.0 0.00 0.62 0.00 50 1014.7
20260507123006 72 129 1.0 4.0 0.00 0.62 0.00 49 1014.7
20260507122507 72 193 2.0 8.0 0.00 0.66 0.00 50 1014.7
20260507122006 72 224 3.0 8.0 0.00 0.66 0.00 50 1014.7
20260507120506 72 217 2.0 7.0 0.00 0.66 0.00 50 1014.7
20260507115507 72 229 4.0 12.0 0.00 0.66 0.00 50 1014.7
20260507115006 72 243 1.0 12.0 0.00 0.70 0.00 51 1014.7
20260507114506 72 231 5.0 9.0 0.00 0.70 0.00 51 1014.7
20260507114007 71 208 4.0 11.0 0.00 0.70 0.00 52 1015.7
20260507113506 71 218 2.0 11.0 0.00 0.70 0.00 53 1015.7
20260507113007 71 217 5.0 11.0 0.00 0.70 0.00 51 1015.7
20260507112506 71 220 2.0 11.0 0.00 0.70 0.00 53 1014.7
20260507112006 71 210 5.0 9.0 0.00 0.70 0.00 53 1014.7
20260507111507 71 187 3.0 11.0 0.00 0.74 0.00 53 1014.7
20260507110506 71 289 6.0 11.0 0.00 0.74 0.00 53 1014.7
20260507110006 71 250 5.0 11.0 0.00 0.74 0.00 55 1014.7
20260507105506 71 254 2.0 8.0 0.00 0.74 0.00 54 1014.7
20260507105006 71 277 5.0 12.0 0.00 0.74 0.00 55 1014.7
20260507104506 71 243 7.0 12.0 0.00 0.74 0.00 55 1014.7
20260507104006 71 221 2.0 11.0 0.00 0.74 0.00 54 1014.7
20260507103506 71 208 6.0 11.0 0.00 0.74 0.00 55 1014.7
20260507103006 71 207 3.0 12.0 0.00 0.74 0.00 55 1014.7
20260507102506 71 239 3.0 12.0 0.00 0.74 0.00 55 1015.7
20260507102007 71 286 5.0 9.0 0.00 0.74 0.00 56 1015.7
20260507101507 70 295 7.0 12.0 0.00 0.78 0.00 57 1015.7
20260507101006 70 242 5.0 12.0 0.00 0.78 0.00 57 1015.7
20260507100507 70 197 4.0 10.0 0.00 0.78 0.00 59 1015.7
20260507100006 70 222 7.0 10.0 0.00 0.78 0.00 58 1015.7
20260507095006 69 268 7.0 11.0 0.00 0.78 0.00 59 1015.7
20260507094006 69 296 5.0 11.0 0.00 0.78 0.00 62 1014.7
20260507093505 68 292 6.0 11.0 0.00 0.78 0.00 63 1014.7
20260507092506 67 296 6.0 13.0 0.00 0.78 0.00 65 1015.7
20260507092006 67 299 3.0 13.0 0.00 0.78 0.00 67 1015.7
20260507091505 67 301 3.0 9.0 0.00 0.78 0.00 67 1015.7
20260507091006 67 296 4.0 9.0 0.00 0.78 0.00 67 1014.7
20260507090507 66 264 4.0 9.0 0.00 0.78 0.00 72 1014.7
20260507090006 65 258 3.0 4.0 0.00 0.78 0.00 74 1014.7
20260507085006 64 254 2.0 4.0 0.00 0.78 0.00 74 1014.7
20260507084506 64 262 4.0 8.0 0.00 0.78 0.00 74 1014.7
20260507084006 64 273 6.0 9.0 0.00 0.83 0.00 74 1014.7
20260507083506 65 273 3.0 9.0 0.00 0.83 0.00 75 1014.7
20260507083006 65 279 2.0 8.0 0.00 0.83 0.00 74 1014.7
20260507082506 65 302 5.0 9.0 0.00 0.83 0.00 77 1014.7
20260507081505 65 297 6.0 8.0 0.00 0.87 0.00 79 1014.7
20260507081007 64 290 3.0 7.0 0.00 0.87 0.00 79 1014.7
20260507080506 64 280 2.0 6.0 0.00 0.91 0.00 81 1014.7
20260507080006 63 270 4.0 7.0 0.00 0.91 0.00 81 1014.7
20260507075506 63 266 2.0 7.0 0.00 0.95 0.00 80 1014.7
20260507074506 63 285 3.0 6.0 0.00 0.95 0.00 82 1014.7
20260507074006 64 298 3.0 6.0 0.00 0.95 0.00 85 1014.7
20260507073505 63 310 4.0 6.0 0.00 0.95 0.00 86 1014.7
20260507073005 63 335 2.0 4.0 0.00 0.95 0.00 86 1014.7
20260507072006 63 296 2.0 6.0 0.00 0.99 0.00 89 1014.7
20260507071506 62 290 3.0 6.0 0.00 0.99 0.00 90 1014.7
20260507071006 62 305 3.0 5.0 0.00 0.99 0.00 92 1014.7
20260507070506 62 282 3.0 5.0 0.00 0.99 0.00 93 1014.7
20260507070010 62 265 2.0 5.0 0.00 0.99 0.00 93 1014.7
20260507064507 61 259 2.0 4.0 0.00 1.04 0.00 94 1013.7
20260507064006 61 210 2.0 3.0 0.00 1.07 0.00 94 1013.7
20260507063505 60 189 0.0 2.0 0.00 1.12 0.00 94 1013.7
20260507063006 60 214 0.0 2.0 0.00 1.16 0.00 95 1013.7
20260507062506 59 206 2.0 2.0 0.00 1.20 0.00 95 1013.7
20260507062006 59 274 0.0 2.0 0.00 1.28 0.00 94 1013.7
20260507061505 59 327 1.0 2.0 0.00 1.28 0.00 94 1013.7
20260507061006 59 327 1.0 2.0 0.00 1.32 0.00 96 1013.7
20260507060505 59 314 0.0 2.0 0.00 1.37 0.00 96 1013.7
20260507060006 59 335 0.0 2.0 0.00 1.41 0.00 96 1013.7
20260507055506 58 73 0.0 2.0 0.00 1.41 0.00 96 1013.7
20260507055006 58 113 0.0 3.0 0.00 1.41 0.00 96 1013.7
20260507054006 58 86 2.0 3.0 0.00 1.41 0.00 96 1013.7
20260507053506 58 54 1.0 2.0 0.00 1.41 0.00 95 1013.7
20260507053006 58 39 0.0 2.0 0.00 1.41 0.00 95 1013.7
20260507052006 58 23 0.0 2.0 0.00 1.41 0.00 95 1013.7
20260507051006 57 25 1.0 2.0 0.00 1.41 0.00 95 1013.7
20260507050006 57 100 0.0 2.0 0.00 1.41 0.00 94 1013.7
20260507045505 57 88 1.0 3.0 0.00 1.41 0.00 94 1013.7
20260507044506 57 51 0.0 2.0 0.00 1.41 0.00 94 1013.7
20260507043506 58 0 0.0 0.0 0.00 1.41 0.00 94 1013.7
20260507043005 58 0 0.0 0.0 0.00 1.41 0.00 94 1013.7
20260507042506 58 292 0.0 2.0 0.00 1.41 0.00 94 1013.7
20260507042005 58 283 0.0 2.0 0.00 1.41 0.00 94 1013.7
20260507041506 58 18 0.0 2.0 0.00 1.41 0.00 94 1013.7
20260507041005 58 58 1.0 2.0 0.00 1.41 0.00 94 1013.7
20260507040506 58 86 2.0 2.0 0.00 1.41 0.00 94 1013.7
20260507040005 58 89 1.0 2.0 0.00 1.41 0.00 94 1013.7
20260507035506 58 85 0.0 3.0 0.00 1.41 0.00 94 1013.7
20260507034506 58 87 2.0 4.0 0.00 1.41 0.00 94 1013.7
20260507034006 58 65 2.0 4.0 0.00 1.41 0.00 94 1013.7
20260507033506 58 72 1.0 2.0 0.00 1.41 0.00 94 1013.7
20260507033005 58 77 0.0 3.0 0.00 1.41 0.00 94 1013.7
20260507032506 59 72 2.0 3.0 0.00 1.41 0.00 94 1013.7
20260507032005 59 86 2.0 4.0 0.00 1.41 0.00 94 1013.7
20260507030506 59 131 2.0 5.0 0.00 1.41 0.00 94 1013.7
20260507030005 59 172 2.0 5.0 0.00 1.41 0.00 94 1013.7
20260507025506 59 232 2.0 4.0 0.00 1.41 0.00 94 1013.7
20260507024506 59 278 2.0 3.0 0.00 1.41 0.00 94 1013.7
20260507024005 59 294 1.0 3.0 0.00 1.41 0.00 94 1013.7
20260507023506 59 270 1.0 8.0 0.00 1.41 0.00 95 1013.7
20260507023005 59 265 1.0 8.0 0.00 1.41 0.00 95 1013.7
20260507021506 59 251 2.0 4.0 0.00 1.41 0.00 96 1013.7
20260507021005 59 269 2.0 3.0 0.00 1.41 0.00 96 1012.7
20260507020506 59 19 0.0 2.0 0.00 1.41 0.00 96 1012.7
20260507020005 59 8 1.0 3.0 0.00 1.41 0.00 96 1012.7
20260507015506 59 248 1.0 3.0 0.00 1.41 0.00 96 1012.7
20260507015006 59 281 2.0 3.0 0.00 1.41 0.00 96 1012.7
20260507014505 59 293 0.0 5.0 0.00 1.41 0.00 96 1012.7
20260507014006 59 281 3.0 5.0 0.00 1.41 0.00 96 1013.7
20260507013505 59 262 4.0 5.0 0.00 1.41 0.00 95 1013.7
20260507013006 59 257 2.0 5.0 0.00 1.41 0.00 95 1013.7
20260507012505 59 247 2.0 4.0 0.00 1.41 0.00 95 1013.7
20260507012006 59 230 2.0 4.0 0.00 1.41 0.00 95 1013.7
20260507011506 59 258 2.0 5.0 0.00 1.41 0.00 96 1013.7
20260507011005 59 274 2.0 5.0 0.00 1.41 0.00 95 1012.7
20260507010506 59 270 3.0 5.0 0.00 1.41 0.00 95 1012.7
20260507010006 58 260 2.0 4.0 0.00 1.41 0.00 95 1012.7
20260507005006 59 272 2.0 4.0 0.00 1.45 0.00 95 1012.7
20260507004506 59 277 2.0 4.0 0.00 1.45 0.00 95 1012.7
20260507004005 58 267 3.0 4.0 0.00 1.49 0.00 95 1013.7
20260507003506 58 260 3.0 4.0 0.00 1.53 0.00 95 1013.7
20260507002505 58 269 3.0 4.0 0.00 1.66 0.00 95 1013.7
20260507001505 58 257 2.0 4.0 0.00 1.82 0.00 95 1013.7
20260507001006 58 256 1.0 4.0 0.00 1.82 0.00 95 1012.7
20260507000506 58 243 3.0 4.0 0.00 1.86 0.00 95 1012.7
20260507000006 58 247 2.0 4.0 0.00 1.86 0.00 95 1012.7
20260506235506 58 249 2.0 4.0 0.00 1.91 0.00 95 1013.7
20260506235005 58 236 2.0 4.0 0.00 1.91 0.00 95 1013.7
20260506234506 58 262 3.0 7.0 0.00 1.91 0.00 95 1013.7
20260506234005 58 266 2.0 7.0 0.00 1.91 0.00 95 1013.7
20260506233506 58 266 3.0 5.0 0.00 1.94 0.00 95 1013.7
20260506233006 58 260 2.0 5.0 0.00 1.99 0.00 95 1013.7
20260506232506 58 267 3.0 4.0 0.00 1.99 0.00 95 1013.7
20260506232019 58 285 3.0 4.0 0.00 2.03 0.00 95 1013.7
20260506231524 58 248 2.0 4.0 0.00 2.07 0.00 95 1013.7
20260506230507 58 241 2.0 5.0 0.00 2.07 0.00 95 1013.7
20260506225506 58 244 3.0 5.0 0.00 2.07 0.00 95 1013.7
20260506225005 58 278 2.0 8.0 0.00 2.07 0.00 95 1013.7
20260506224506 58 270 4.0 8.0 0.00 2.07 0.00 95 1013.7
20260506224005 58 238 3.0 6.0 0.00 2.07 0.00 95 1013.7
20260506223506 58 248 4.0 7.0 0.00 2.07 0.00 95 1013.7
20260506223005 58 269 4.0 8.0 0.00 2.07 0.00 95 1013.7
20260506222506 58 264 5.0 8.0 0.00 2.07 0.00 95 1012.7
20260506222005 58 248 4.0 5.0 0.00 2.07 0.00 95 1012.7
20260506221506 58 259 2.0 6.0 0.00 2.07 0.00 95 1012.7
20260506221005 58 264 4.0 6.0 0.00 2.07 0.00 95 1013.7
20260506220506 58 268 2.0 6.0 0.00 2.07 0.00 95 1013.7
20260506220011 58 265 4.0 6.0 0.00 2.07 0.00 95 1013.7
20260506215505 59 253 5.0 6.0 0.00 2.07 2.07 95 1013.7
20260506215006 59 263 2.0 3.0 0.00 2.07 2.07 95 1013.7
20260506214506 59 271 2.0 2.0 0.00 2.07 2.07 95 1013.7
20260506214006 59 271 2.0 3.0 0.00 2.07 2.07 95 1013.7
20260506213505 59 246 2.0 3.0 0.00 2.07 2.07 95 1013.7
20260506213006 59 245 0.0 4.0 0.00 2.07 2.07 95 1013.7
20260506212005 59 252 2.0 3.0 0.00 2.07 2.07 95 1013.7
20260506211506 59 234 2.0 3.0 0.00 2.07 2.07 94 1013.7
20260506211005 59 223 2.0 3.0 0.00 2.07 2.07 94 1013.7
20260506210506 59 233 2.0 3.0 0.00 2.07 2.07 94 1013.7
20260506205505 59 255 2.0 4.0 0.00 2.07 2.07 94 1013.7
20260506204506 60 244 2.0 5.0 0.00 2.07 2.07 94 1013.7
20260506204005 60 243 2.0 5.0 0.00 2.07 2.07 94 1013.7
20260506203506 60 250 2.0 4.0 0.00 2.07 2.07 94 1013.7